E2682 Weather Reports


time (UTC)temp
C
wind
direction
speed
KPH
gust
KPH
rain 1hr
cm
rain 24hr
cm
rain mn
cm
humidity
%
barometer
mb
20260502152231 -17 162 0.0 0.0 0.00 3.25 0.00 979.8
20260502151732 -17 162 0.0 0.0 0.00 3.25 0.00 979.8
20260502151233 26 162 0.0 0.0 0.00 3.25 0.00 33 979.7
20260502123733 21 207 0.0 0.0 0.00 3.25 0.00 43 978.2
20260502123233 21 207 0.0 0.0 0.00 3.25 0.00 43 978.2
20260502122732 21 207 0.0 0.0 0.00 3.25 0.00 43 978.2
20260502121733 21 207 0.0 0.0 0.00 3.25 0.00 43 978.1
20260502121233 21 207 0.0 0.0 0.00 3.25 0.00 43 978.1
20260502120732 21 207 0.0 0.0 0.00 3.25 0.00 43 978.1
20260502120231 21 207 0.0 0.0 0.00 3.25 0.00 43 978.0
20260502115737 21 207 0.0 0.0 0.00 3.25 0.00 42 978.1
20260502115233 21 207 0.0 0.0 0.00 3.25 0.00 42 978.1
20260502114732 21 207 0.0 0.0 0.00 3.25 0.00 42 978.1
20260502114233 22 207 0.0 0.0 0.00 3.25 0.00 42 978.1
20260502113732 22 207 0.0 0.0 0.00 3.25 0.00 41 978.1
20260502113232 22 207 0.0 0.0 0.00 3.25 0.00 41 978.2
20260502112731 -17 207 0.0 0.0 0.00 3.25 0.00 978.2
20260502111734 22 207 0.0 0.0 0.00 3.25 0.00 41 978.2
20260502110733 22 207 0.0 1.6 0.00 3.25 0.00 41 978.2
20260502110232 22 207 0.0 1.6 0.00 3.25 0.00 41 978.2
20260502105733 22 204 0.0 1.6 0.00 3.25 0.00 40 978.3
20260502105233 22 241 0.0 6.4 0.00 3.25 0.00 40 978.2
20260502104233 22 162 0.0 3.2 0.00 3.25 0.00 41 978.3
20260502103733 22 209 0.0 3.2 0.00 3.25 0.00 40 978.3
20260502102733 21 0 0.0 0.0 0.00 3.25 0.00 40 978.2
20260502101732 -17 0 0.0 0.0 0.00 3.25 0.00 978.2
20260502100734 22 0 0.0 0.0 0.00 3.25 0.00 39 978.2
20260502100233 22 0 0.0 0.0 0.00 3.25 0.00 39 978.3
20260502091232 22 0 0.0 0.0 0.00 3.25 0.00 38 978.2
20260502090731 22 0 0.0 0.0 0.00 3.25 0.00 38 978.3
20260502090232 22 0 0.0 0.0 0.00 3.25 0.00 38 978.3
20260502071233 23 0 0.0 0.0 0.00 3.25 0.00 38 979.2
20260502070231 23 0 0.0 0.0 0.00 3.25 0.00 38 979.3
20260502065732 23 0 0.0 0.0 0.00 3.25 3.25 38 979.2
20260502064735 23 0 0.0 0.0 0.00 3.25 3.25 38 979.2
20260502063736 23 0 0.0 1.6 0.00 3.25 3.25 37 979.2
20260502063234 24 0 0.0 0.0 0.00 3.25 3.25 37 979.2
20260502062735 24 0 0.0 0.0 0.00 3.25 3.25 37 979.1
20260502062235 24 0 0.0 0.0 0.00 3.25 3.25 37 979.2
20260502061235 24 0 0.0 0.0 0.00 3.25 3.25 37 979.2
20260502060236 24 0 0.0 1.6 0.00 3.25 3.25 36 979.1
20260502055737 24 0 0.0 1.6 0.00 3.25 3.25 36 979.1
20260502054235 25 0 0.0 1.6 0.00 3.25 3.25 36 979.1
20260502053736 25 0 0.0 1.6 0.00 3.25 3.25 36 979.2
20260502053238 25 0 0.0 1.6 0.00 3.25 3.25 37 979.2
20260502052235 25 0 0.0 4.8 0.00 3.25 3.25 37 979.0
20260502051234 25 0 0.0 3.2 0.00 3.25 3.25 37 979.0
20260502050748 25 0 0.0 3.2 0.00 3.25 3.25 37 979.0
20260502045735 25 0 0.0 3.2 0.00 3.25 3.25 37 979.0
20260502045236 25 0 0.0 3.2 0.00 3.25 3.25 37 978.9
20260502044735 25 0 0.0 1.6 0.00 3.25 3.25 36 978.9
20260502044235 25 0 0.0 3.2 0.00 3.25 3.25 36 978.8
20260502043734 25 0 0.0 6.4 0.00 3.25 3.25 36 978.8
20260502043234 25 0 0.0 6.4 0.00 3.25 3.25 36 978.7
20260502042735 26 6 0.0 3.2 0.00 3.25 3.25 35 978.6
20260502042236 26 6 0.0 6.4 0.00 3.25 3.25 35 978.6
20260502041734 26 4 0.0 6.4 0.00 3.25 3.25 35 978.5
20260502041234 26 3 1.6 6.4 0.00 3.25 3.25 35 978.5
20260502040735 26 0 0.0 6.4 0.00 3.25 3.25 35 978.5
20260502040236 26 0 0.0 8.0 0.00 3.25 3.25 35 978.4
20260502035734 26 0 1.6 8.0 0.00 3.25 3.25 34 978.3
20260502035234 26 6 0.0 8.0 0.00 3.25 3.25 34 978.3
20260502034735 26 0 1.6 3.2 0.00 3.25 3.25 34 978.1
20260502034236 26 1 0.0 3.2 0.00 3.25 3.25 34 978.1
20260502033734 26 0 0.0 6.4 0.00 3.25 3.25 34 978.1
20260502033234 26 0 3.2 6.4 0.00 3.25 3.25 34 978.1
20260502032734 26 0 3.2 6.4 0.00 3.25 3.25 34 978.1
20260502032234 26 0 1.6 9.7 0.00 3.25 3.25 33 978.0
20260502031734 26 348 4.8 9.7 0.00 3.25 3.25 33 978.0
20260502030234 27 0 0.0 6.4 0.00 3.25 3.25 32 977.7
20260502025734 27 1 1.6 6.4 0.00 3.25 3.25 32 977.8
20260502025235 27 0 1.6 6.4 0.00 3.25 3.25 32 977.8
20260502024730 -17 0.0 0.0 0.00 3.25 3.25 977.8
20260502024228 27 0 0.0 8.0 0.00 3.25 3.25 31 977.6
20260502023721 27 0 0.0 8.0 0.00 3.25 3.25 31 977.5
20260502023211 27 0 0.0 8.0 0.00 3.25 3.25 31 977.5
20260502022711 27 351 0.0 8.0 0.00 3.25 3.25 31 977.5
20260502022208 27 0 1.6 4.8 0.00 3.25 3.25 31 977.5
20260502021707 27 0 1.6 8.0 0.00 3.25 3.25 31 977.4
20260502021207 27 0 3.2 11.3 0.00 3.25 3.25 31 977.3
20260502020220 27 3 3.2 9.7 0.00 3.25 3.25 31 977.4
20260502015708 27 6 1.6 16.1 0.00 3.25 3.25 30 977.2
20260502015207 28 0 1.6 16.1 0.00 3.25 3.25 30 977.3
20260502014707 28 357 3.2 14.5 0.00 3.25 3.25 30 977.2
20260502014206 28 7 3.2 20.9 0.00 3.25 3.25 30 977.1
20260502013707 28 357 6.4 20.9 0.00 3.25 3.25 30 977.1
20260502012708 28 0 4.8 20.9 0.00 3.25 3.25 29 976.8
20260502012207 29 6 6.4 20.9 0.00 3.25 3.25 29 976.9
20260502011720 29 1 6.4 17.7 0.00 3.25 3.25 29 976.8
20260502011207 29 31 6.4 14.5 0.00 3.25 3.25 29 976.7
20260502010708 29 1 3.2 24.1 0.00 3.25 3.25 29 976.5
20260502005709 30 0 8.0 17.7 0.00 3.25 3.25 29 976.5
20260502004708 30 1 6.4 20.9 0.00 3.25 3.25 29 976.3
20260502004207 30 348 4.8 19.3 0.00 3.25 3.25 28 976.2
20260502003707 30 347 6.4 19.3 0.00 3.25 3.25 28 976.3
20260502002706 31 324 3.2 6.4 0.00 3.25 3.25 26 976.0
20260502001207 32 329 0.0 4.8 0.00 3.25 3.25 25 975.9
20260502000707 32 330 1.6 4.8 0.00 3.25 3.25 25 975.9
20260502000211 32 330 0.0 0.0 0.00 3.25 3.25 25 975.9
20260501235706 32 330 0.0 1.6 0.00 3.25 3.25 25 975.9
20260501235206 32 329 0.0 4.8 0.00 3.25 3.25 25 976.0
20260501234207 31 330 0.0 14.5 0.00 3.25 3.25 25 976.0
20260501233707 31 333 0.0 14.5 0.00 3.25 3.25 25 975.9
20260501233207 32 319 0.0 11.3 0.00 3.25 3.25 24 975.8
20260501232708 32 313 0.0 11.3 0.00 3.25 3.25 24 975.9
20260501232208 32 265 0.0 0.0 0.00 3.25 3.25 24 975.9
20260501231708 31 266 0.0 0.0 0.00 3.25 3.25 24 976.0
20260501231212 31 312 0.0 1.6 0.00 3.25 3.25 24 975.9
20260501230709 31 312 0.0 1.6 0.00 3.25 3.25 24 976.1
20260501230218 31 306 0.0 1.6 0.00 3.25 3.25 24 976.1
20260501225707 31 306 0.0 0.0 0.00 3.25 3.25 24 976.0
20260501225206 31 306 0.0 6.4 0.00 3.25 3.25 25 976.1
20260501224707 31 306 0.0 6.4 0.00 3.25 3.25 25 976.2
20260501224207 32 254 0.0 3.2 0.00 3.25 3.25 25 976.2
20260501223707 32 306 0.0 3.2 0.00 3.25 3.25 25 976.3
20260501223207 32 312 0.0 3.2 0.00 3.25 3.25 25 976.4
20260501222206 31 313 1.6 8.0 0.00 3.25 3.25 25 976.4
20260501221707 31 289 0.0 8.0 0.00 3.25 3.25 25 976.5
20260501221208 31 327 0.0 14.5 0.00 3.25 3.25 26 976.5
20260501220707 31 326 1.6 14.5 0.00 3.25 3.25 25 976.6
20260501220207 31 330 3.2 11.3 0.00 3.25 3.25 26 976.6
20260501215706 31 300 1.6 6.4 0.00 3.25 3.25 26 976.7
20260501215206 31 264 0.0 6.4 0.00 3.25 3.25 26 976.7
20260501214707 31 351 1.6 6.4 0.00 3.25 3.25 26 976.8
20260501214204 31 305 0.0 6.4 0.00 3.25 3.25 26 976.8
20260501213659 31 348 0.0 3.2 0.00 3.25 3.25 26 976.9
20260501212643 31 265 0.0 1.6 0.00 3.25 3.25 26 977.0
20260501212137 31 355 0.0 6.4 0.00 3.25 3.25 27 977.2
20260501211135 31 0 0.0 6.4 0.00 3.25 3.25 27 977.3
20260501210636 31 351 0.0 6.4 0.00 3.25 3.25 27 977.4
20260501210136 31 353 0.0 4.8 0.00 3.25 3.25 27 977.4
20260501205635 30 345 0.0 4.8 0.00 3.25 3.25 28 977.5
20260501204636 30 338 0.0 6.4 0.00 3.25 3.25 29 977.6
20260501204136 30 338 0.0 6.4 0.00 3.25 3.25 30 977.7
20260501203636 30 338 0.0 4.8 0.00 3.25 3.25 30 977.8
20260501203136 30 338 1.6 8.0 0.00 3.25 3.25 30 977.9
20260501202636 30 314 0.0 8.0 0.00 3.25 3.25 31 977.9
20260501202136 30 313 1.6 3.2 0.00 3.25 3.25 31 977.9
20260501201636 29 334 0.0 9.7 0.00 3.25 3.25 31 977.9
20260501200133 -17 0.0 0.0 0.00 3.25 3.25 978.0
20260501195636 29 4 0.0 0.0 0.00 3.25 3.25 32 978.1
20260501194636 29 4 0.0 4.8 0.00 3.25 3.25 33 978.2
20260501194134 28 4 0.0 4.8 0.00 3.25 3.25 33 978.3
20260501193136 28 23 0.0 3.2 0.00 3.25 3.25 35 978.3
20260501192635 28 23 0.0 4.8 0.00 3.25 3.25 35 978.4
20260501192136 28 13 0.0 4.8 0.00 3.25 3.25 35 978.5
20260501191636 28 54 0.0 1.6 0.00 3.25 3.25 35 978.5
20260501191134 -17 0.0 0.0 0.00 3.25 3.25 978.6
20260501190636 27 178 0.0 1.6 0.00 3.25 3.25 36 978.6
20260501190136 27 178 0.0 1.6 0.00 3.25 3.25 36 978.8
20260501185634 28 282 0.0 1.6 0.00 3.25 3.25 36 979.0
20260501185135 28 255 0.0 1.6 0.00 3.25 3.25 36 978.9
20260501184635 28 233 0.0 1.6 0.00 3.25 3.25 37 979.0
20260501184134 27 314 0.0 1.6 0.00 3.25 3.25 37 979.1
20260501183636 27 314 0.0 1.6 0.00 3.25 3.25 38 979.1
20260501183135 27 305 0.0 0.0 0.00 3.25 3.25 39 979.3
20260501182636 27 305 0.0 3.2 0.00 3.25 3.25 39 979.3
20260501182135 27 305 0.0 3.2 0.00 3.25 3.25 40 979.5
20260501181641 26 305 0.0 0.0 0.00 3.25 3.25 41 979.5
20260501181136 26 358 0.0 0.0 0.00 3.25 3.25 41 979.6
20260501175636 26 357 0.0 0.0 0.00 3.25 3.25 44 979.6
20260501175140 26 357 0.0 0.0 0.00 3.25 3.25 44 979.6
20260501174636 26 358 0.0 0.0 0.00 3.25 3.25 44 979.8
20260501174136 26 358 0.0 0.0 0.00 3.25 3.25 44 979.8
20260501173136 26 358 0.0 1.6 0.00 3.25 3.25 44 979.9
20260501172635 25 357 0.0 0.0 0.00 3.25 3.25 45 979.9
20260501172137 25 357 0.0 0.0 0.00 3.25 3.25 46 980.0
20260501171636 25 357 0.0 0.0 0.00 3.25 3.25 46 980.0
20260501170633 24 357 0.0 0.0 0.00 3.25 3.25 49 980.0
20260501170133 24 357 0.0 0.0 0.00 3.25 3.25 49 980.1
20260501165633 24 358 0.0 0.0 0.00 3.25 0.00 49 980.0
20260501165131 24 357 0.0 0.0 0.00 3.25 0.00 50 980.0
20260501164132 23 357 0.0 0.0 3.25 3.25 0.00 50 980.0
20260501163632 23 358 0.0 3.2 3.25 3.25 0.00 51 979.9
20260501163134 23 358 0.0 3.2 3.25 3.25 0.00 51 979.9
20260501162138 23 326 0.0 0.0 3.25 3.25 0.00 51 979.9
20260501161634 23 326 0.0 0.0 3.25 3.25 0.00 51 979.9
20260501161133 23 326 0.0 0.0 3.25 3.25 0.00 51 979.8
20260501160632 23 326 0.0 0.0 3.25 3.25 0.00 51 979.8
20260501160134 22 326 0.0 0.0 3.25 3.25 3.25 52 979.8
20260501155633 22 326 0.0 0.0 3.25 0.00 3.25 52 979.8
20260501154637 22 288 11.3 185.1 0.00 0.00 0.00 53 979.8
20260501154133 21 326 0.0 0.0 0.00 0.00 0.00 53 979.8
20260501153133 21 326 0.0 0.0 0.00 0.00 0.00 54 979.7